AST,Max TemperatureF,Mean TemperatureF,Min TemperatureF,Max Dew PointF,MeanDew PointF,Min DewpointF,Max Humidity, Mean Humidity, Min Humidity, Max Sea Level PressureIn, Mean Sea Level PressureIn, Min Sea Level PressureIn, Max VisibilityMiles, Mean VisibilityMiles, Min VisibilityMiles, Max Wind SpeedMPH, Mean Wind SpeedMPH, Max Gust SpeedMPH,PrecipitationIn, CloudCover, Events, WindDirDegrees
2013-5-1,81,76,71,75,72,70,94,87,74,30.01,29.97,29.92,19,7,1,15,9,,1.46,6,Rain,87
2013-5-2,81,77,73,75,74,72,94,91,80,29.95,29.92,29.89,17,8,2,8,5,,0.47,4,Rain,100
2013-5-3,86,80,73,77,74,72,100,81,60,29.93,29.88,29.86,17,9,6,8,2,,0.00,4,,203
2013-5-4,87,80,74,77,74,73,94,80,55,29.90,29.86,29.83,17,9,6,12,3,,0.00,3,Thunderstorm,193
2013-5-5,87,82,76,77,75,73,94,85,65,29.96,29.89,29.80,17,9,6,9,3,,0.16,3,Rain-Thunderstorm,204
2013-5-6,80,78,75,77,75,73,100,94,87,30.03,29.97,29.89,17,7,2,10,1,,2.56,4,Rain-Thunderstorm,135
2013-5-7,84,80,75,77,74,71,100,82,56,30.10,30.02,29.95,16,9,4,10,3,,0.00,3,Rain-Thunderstorm,108
2013-5-8,84,80,75,73,72,70,89,75,59,30.14,30.08,30.04,17,9,6,10,5,,0.00,2,,101
2013-5-9,81,78,75,75,74,72,94,85,78,30.13,30.07,30.01,16,8,6,20,8,,0.67,5,Rain,79
2013-5-10,82,78,75,73,71,70,89,77,65,30.09,30.03,29.98,16,8,6,15,11,,0.08,5,Rain,84
2013-5-11,84,80,77,73,71,68,89,72,56,30.04,29.99,29.95,19,9,6,12,8,,0.00,3,,113
2013-5-12,84,80,76,75,74,73,89,79,67,30.03,29.97,29.95,17,9,6,10,5,,0.00,2,,99
2013-5-13,84,80,77,77,74,73,89,79,69,30.05,30.00,29.95,19,9,6,13,8,,0.43,3,Rain,94
2013-5-14,84,79,74,75,74,72,94,80,73,30.05,30.01,29.95,19,9,6,13,9,,0.02,3,Rain,93
2013-5-15,84,80,77,73,72,71,79,73,63,30.04,29.99,29.95,19,9,6,13,9,,0.00,2,,95
2013-5-16,84,80,77,73,72,71,83,74,61,30.02,29.99,29.95,19,9,6,10,7,,0.00,3,,90
2013-5-17,83,80,77,73,71,70,83,72,61,30.07,30.02,29.98,19,9,6,14,11,,0.02,3,Rain,80
2013-5-18,83,78,73,73,72,70,94,74,61,30.07,30.02,29.95,19,9,6,13,9,,0.47,4,Rain,83
2013-5-19,84,81,78,73,71,70,78,71,63,30.05,30.02,29.98,19,9,6,14,10,,0.00,3,,87
2013-5-20,83,78,73,75,72,70,94,78,66,30.04,29.99,29.95,17,8,5,15,11,,0.28,4,Rain,81
2013-5-21,83,78,73,74,73,70,94,80,65,30.01,29.98,29.92,17,8,0,25,11,,0.75,4,Rain,94
2013-5-22,83,78,74,73,71,66,89,74,54,30.04,29.99,29.95,17,9,6,16,11,,0.08,3,Rain,85
2013-5-23,83,79,75,73,70,67,83,70,60,30.05,30.01,29.98,17,8,6,14,12,,0.02,2,Rain,90
2013-5-24,84,80,76,75,73,71,89,79,69,30.07,30.01,29.95,17,9,6,16,11,,0.04,4,Rain-Thunderstorm,93
2013-5-25,83,78,73,75,73,70,94,83,74,30.06,30.02,29.98,16,9,6,10,6,,0.39,5,Rain-Thunderstorm,96
2013-5-26,84,78,71,75,74,70,94,81,66,30.07,30.03,29.98,16,8,4,13,9,,0.24,4,Rain-Thunderstorm,95
2013-5-27,84,78,72,77,75,73,89,81,68,30.05,30.02,29.98,15,8,6,15,11,,0.02,3,Rain,87
2013-5-28,84,81,78,75,74,72,89,78,71,30.06,30.02,29.98,15,8,6,14,11,,0.04,4,Rain-Thunderstorm,83
2013-5-29,84,81,77,75,73,72,89,76,64,30.05,30.01,29.98,17,8,6,16,13,,0.12,3,Rain,81
2013-5-30,84,80,77,76,74,73,89,78,67,30.08,30.03,30.01,16,8,6,17,13,,0.00,2,,87
2013-5-31,84,81,78,74,73,72,83,74,64,30.08,30.04,30.01,16,8,6,16,13,,0.01,4,Rain,86